This is the latest recevied weather packets stored in our database for station/object F5MAP-5. If no packets are shown the sender has not sent any weather packets the latest 10 day(s).
| Time | Temp. | Humidity | Pressure | Rain* | Wind** | Luminosity | Snow |
|---|---|---|---|---|---|---|---|
| 1787691731 | 18.33° C | 87% | 1014.9 hPa | 0 mm | - | 0 W/m² | - |
| 1787691130 | 18.33° C | 87% | 1014.8 hPa | 0 mm | - | 0 W/m² | - |
| 1787690530 | 18.89° C | 86% | 1014.9 hPa | 0 mm | - | 0 W/m² | - |
| 1787689930 | 18.89° C | 86% | 1014.9 hPa | 0 mm | - | 0 W/m² | - |
| 1787689330 | 19.44° C | 85% | 1014.8 hPa | 0 mm | - | 0 W/m² | - |
| 1787688730 | 19.44° C | 85% | 1014.6 hPa | 0 mm | - | 0 W/m² | - |
| 1787688130 | 19.44° C | 84% | 1014.5 hPa | 0 mm | - | 0 W/m² | - |
| 1787687530 | 19.44° C | 84% | 1014.4 hPa | 0 mm | - | 0 W/m² | - |
| 1787686930 | 19.44° C | 83% | 1014.4 hPa | 0 mm | - | 0 W/m² | - |
| 1787686330 | 19.44° C | 83% | 1014.3 hPa | 0 mm | - | 0 W/m² | - |
| 1787685730 | 20° C | 82% | 1014.4 hPa | 0 mm | - | 0 W/m² | - |
| 1787685130 | 20° C | 82% | 1014.3 hPa | 0 mm | - | 0 W/m² | - |
| 1787684530 | 20° C | 82% | 1014.3 hPa | 0 mm | - | 0 W/m² | - |
| 1787683930 | 20° C | 81% | 1014.3 hPa | 0 mm | - | 0 W/m² | - |
| 1787683330 | 20.56° C | 80% | 1014.1 hPa | 0 mm | - | 0 W/m² | - |
| 1787682730 | 20.56° C | 79% | 1013.9 hPa | 0 mm | - | 0 W/m² | - |
| 1787682130 | 21.11° C | 78% | 1013.7 hPa | 0 mm | - | 0 W/m² | - |
| 1787681530 | 21.67° C | 77% | 1013.6 hPa | 0 mm | - | 0 W/m² | - |
| 1787680930 | 22.22° C | 76% | 1013.3 hPa | 0 mm | - | 7 W/m² | - |
| 1787680330 | 22.22° C | 75% | 1013.2 hPa | 0 mm | - | 25 W/m² | - |
| 1787679731 | 22.78° C | 74% | 1013.2 hPa | 0 mm | - | 11 W/m² | - |
| 1787679130 | 23.33° C | 72% | 1012.9 hPa | 0 mm | - | 12 W/m² | - |
| 1787678530 | 23.89° C | 72% | 1012.8 hPa | 0 mm | - | 14 W/m² | - |
| 1787677930 | 23.89° C | 71% | 1012.7 hPa | 0 mm | - | 18 W/m² | - |
| 1787677330 | 24.44° C | 70% | 1012.7 hPa | 0 mm | - | 18 W/m² | - |
* Rain latest hour (hover to see other rain measurements)
** Current wind speed in m/s (hover to see current wind gust speed)